Regional Weather Roundup
Issued by NWS Sioux Falls, SD

Home | Current Version | Previous Version | Graphics & Text | Print | Product List | Glossary On
Versions: 1 2 3 4 5 6 7 8 9 10 11 12 13 14 15 16 17 18 19 20 21 22 23 24 25 26 27 28 29 30 31 32 33 34 35 36 37 38 39 40 41 42 43 44 45 46 47 48 49 50
000
ASUS43 KFSD 241910
RWRFSD

WEATHER ROUNDUP FOR SE SOUTH DAKOTA/SW MINNESOTA/NW IOWA
NATIONAL WEATHER SERVICE SIOUX FALLS SD
200 PM CDT WED MAY 24 2017

NOTE: "FAIR" INDICATES FEW OR NO CLOUDS BELOW 12,000 FEET WITH NO
SIGNIFICANT WEATHER AND OR OBSTRUCTIONS TO VISIBILITY.


SDZ038>040-050-052>070-242000-
SOUTHEAST SOUTH DAKOTA

CITY           SKY/WX    TMP DP  RH WIND       PRES   REMARKS
BROOKINGS      CLOUDY    58  44  60 MISG        N/A
CHAMBERLAIN    MOSUNNY   64  46  50 S9        29.68F
HURON          PTSUNNY   62  45  53 S10       29.70F
MADISON        MOCLDY    57  48  72 SE6       29.73F
MITCHELL       PTSUNNY   62  45  53 SE5G17    29.72F
SIOUX FALLS    CLOUDY    61  46  57 CALM      29.72F
WINNER         FAIR      63  45  51 S13G18    29.68F
YANKTON          N/A     59  46  62 E8        29.73F
$$

MNZ071-072-080-081-089-090-097-098-242000-
SOUTHWEST MINNESOTA

CITY           SKY/WX    TMP DP  RH WIND       PRES   REMARKS
FAIRMONT       PTSUNNY   56  47  71 N9        29.74F
JACKSON        CLOUDY    55  45  67 CALM      29.74S
LUVERNE        CLOUDY    59  43  55 E8        29.74F
MARSHALL       CLOUDY    57  45  64 NE8       29.74F
MONTEVIDEO     CLOUDY    61  45  55 E8        29.74F
PIPESTONE      PTSUNNY   59  39  47 NE6       29.73F
REDWOOD FALLS  CLOUDY    60  42  51 NE7       29.74S
TRACY          CLOUDY    58  46  65 NE7       29.75S
WINDOM         PTSUNNY   55  45  67 N6        29.74S
WORTHINGTON    CLOUDY    56  43  61 NE7       29.75S
$$

IAZ001>003-012>014-020>022-031-032-NEZ013-014-SDZ071-242000-
NORTHWEST IOWA

CITY           SKY/WX    TMP DP  RH WIND       PRES   REMARKS
CHEROKEE       PTSUNNY   62  47  57 NE10      29.72F
DENISON        CLOUDY    61  46  59 N6G15     29.73S
ESTHERVILLE    PTSUNNY   57  47  69 N9        29.72F
LE MARS        PTSUNNY   63  46  55 VRB5      29.73F
ORANGE CITY    PTSUNNY   61  46  59 NE5       29.73F
SHELDON        PTSUNNY   59  43  55 N8        29.71F
SIOUX CITY     MOSUNNY   64  47  53 N7        29.73F
SPENCER        CLOUDY    61  44  53 N9        29.73S
STORM LAKE       N/A     61  43  51 NE13      29.72F
$$

ABBREVIATIONS USED IN REMARKS
   TC - TEMPERATURE IN CELSIUS
  WCI - WIND CHILL INDEX
   HX - HEAT INDEX
  VSB - VISIBILITY




USA.gov is the U.S. government's official web portal to all federal, state and local government web resources and services.